Tracking 29088 objects as of 14-Jul-2024
HD Live streaming from Space Station
objects crossing your sky now

COSMOS 1275 DEB

Track COSMOS 1275 DEB now!
10-day predictions


NORAD ID: 12952
Int'l Code: 1981-053EG
Perigee: 902.5 km
Apogee: 919.0 km
Inclination: 83.0 °
Period: 103.1 minutes
Semi major axis: 7281 km
RCS: 0.0421 m2 (small)
Launch date: June 4, 1981
Source: Commonwealth of Independent States (former USSR) (CIS)
Launch site: PLESETSK MISSILE AND SPACE COMPLEX (PKMTR)

Note: This is SATELLITE DEBRIS
Your satellite tracking list
Your tracking list is empty




NASA's NSSDC Master Catalog

Two Line Element Set (TLE):
1 12952U 81053EG  24195.92002314  .00001647  00000-0  11667-2 0  9999
2 12952  82.9621 153.7967 0011319  34.4441  20.2244 13.97172033164531
Source of the keplerian elements: AFSPC